Location: Newark
(51.2625°N, 13.3939°E)
Time: 08:43:29
(UTC+00:00)

Explorer 7 - Pass Details

Date: 20 November 2019
Orbit: 485 x 680 km, 50.3° (Epoch: 06 December)

Event Time Altitude Azimuth Distance (km) Brightness Sun altitude
Rises 23:14:49 0° 233° (SW) 2,952 - -58.2°
Reaches altitude 10° 23:17:16 10° 228° (SW) 2,017 - -58.1°
Maximum altitude 23:21:41 45° 156° (SSE) 837 - -58.0°
Drops below altitude 10° 23:25:52 10° 84° (E) 1,907 - -57.8°
Sets 23:28:08 0° 78° (ENE) 2,773 - -57.7°
